Location: Grand Rapids
(42.9630°N, 85.6680°W)
Time: 02:16:02
(UTC-04:00)

Tiros 1 despin weight - All Passes

Search period start: 30 May 2024 00:00
Search period end: 09 June 2024 00:00
Orbit: 578 x 620 km, 48.2° (Epoch: 29 May)

Date Brightness Start Highest point End Pass type
(mag) Time Alt. Az. Time Alt. Az. Time Alt. Az.
30 May - 00:47:37 10° W 00:51:55 47° N 00:56:09 10° ENE visible
30 May - 02:29:22 10° WNW 02:33:35 45° N 02:37:45 10° E visible
30 May - 04:10:35 10° WNW 04:14:57 78° SSW 04:19:16 10° ESE visible
30 May - 05:52:43 10° W 05:55:33 17° SW 05:58:21 10° S daylight
30 May - 21:36:32 10° SSW 21:40:12 25° SE 21:43:52 10° E daylight
30 May - 23:16:34 10° WSW 23:21:02 82° NNW 23:25:26 10° ENE visible
31 May - 00:58:18 10° WNW 01:02:31 42° N 01:06:41 10° ENE visible
31 May - 02:39:51 10° WNW 02:44:10 54° NNE 02:48:26 10° E visible
31 May - 04:21:07 10° WNW 04:25:18 48° SW 04:29:28 10° SE visible
31 May - 21:46:14 10° SW 21:50:27 42° SE 21:54:38 10° ENE visible
31 May - 23:27:08 10° W 23:31:31 60° NNW 23:35:53 10° ENE visible
01 Jun - 01:08:57 10° WNW 01:13:09 41° N 01:17:18 10° ENE visible
01 Jun - 02:50:18 10° WNW 02:54:42 72° NNE 02:59:01 10° ESE visible
01 Jun - 04:31:47 10° W 04:35:34 29° SW 04:39:19 10° SSE visible
01 Jun - 20:17:43 10° SSE 20:20:14 15° SE 20:22:44 10° E daylight
01 Jun - 21:56:20 10° SW 22:00:47 67° SSE 22:05:10 10° ENE visible
01 Jun - 23:37:46 10° W 23:42:05 48° NNW 23:46:21 10° ENE visible
02 Jun - 01:19:30 10° WNW 01:23:46 45° N 01:27:57 10° E visible
02 Jun - 03:00:45 10° WNW 03:05:08 78° SSW 03:09:28 10° ESE visible
02 Jun - 04:42:51 10° W 04:45:44 17° SW 04:48:35 10° S visible
02 Jun - 20:26:41 10° SSW 20:30:22 25° SE 20:34:02 10° E daylight
02 Jun - 22:06:41 10° WSW 22:11:11 82° NNW 22:15:38 10° ENE visible
02 Jun - 23:48:26 10° WNW 23:52:41 42° N 23:56:52 10° ENE visible
03 Jun - 01:30:00 10° WNW 01:34:20 54° NNE 01:38:36 10° E visible
03 Jun - 03:11:15 10° WNW 03:15:30 49° SSW 03:19:40 10° SE visible
03 Jun - 20:36:21 10° SW 20:40:35 41° SE 20:44:48 10° ENE daylight
03 Jun - 22:17:14 10° W 22:21:40 60° NNW 22:26:03 10° ENE visible
03 Jun - 23:59:04 10° WNW 00:03:17 41° N 00:07:28 10° ENE visible
04 Jun - 01:40:26 10° WNW 01:44:50 72° NNE 01:49:11 10° ESE visible
04 Jun - 03:21:55 10° W 03:25:44 30° SW 03:29:30 10° SSE visible
04 Jun - 19:07:52 10° SSE 19:10:22 15° SE 19:12:51 10° E daylight
04 Jun - 20:46:26 10° SW 20:50:54 67° SSE 20:55:19 10° ENE daylight
04 Jun - 22:27:51 10° W 22:32:12 48° NNW 22:36:30 10° ENE visible
05 Jun - 00:09:36 10° WNW 00:13:53 45° N 00:18:06 10° E visible
05 Jun - 01:50:52 10° WNW 01:55:16 79° SSW 01:59:37 10° ESE visible
05 Jun - 03:32:57 10° W 03:35:52 18° SW 03:38:47 10° S visible
05 Jun - 19:16:47 10° SSW 19:20:29 25° SE 19:24:09 10° E daylight
05 Jun - 20:56:47 10° WSW 21:01:17 83° NNW 21:05:45 10° ENE daylight
05 Jun - 22:38:31 10° WNW 22:42:47 42° N 22:47:01 10° ENE visible
06 Jun - 00:20:05 10° WNW 00:24:27 54° NNE 00:28:45 10° E visible
06 Jun - 02:01:20 10° WNW 02:05:36 50° SW 02:09:49 10° SE visible
06 Jun - 19:26:26 10° SSW 19:30:41 41° SE 19:34:54 10° ENE daylight
06 Jun - 21:07:17 10° W 21:11:45 61° NNW 21:16:10 10° ENE daylight
06 Jun - 22:49:07 10° WNW 22:53:23 42° N 22:57:35 10° ENE visible
07 Jun - 00:30:30 10° WNW 00:34:56 71° NNE 00:39:19 10° ESE visible
07 Jun - 02:11:59 10° W 02:15:50 30° SW 02:19:39 10° SSE visible
07 Jun - 17:57:57 10° SSE 18:00:26 15° SE 18:02:55 10° E daylight
07 Jun - 19:36:29 10° SW 19:40:58 66° SSE 19:45:25 10° ENE daylight
07 Jun - 21:17:54 10° W 21:22:16 48° NNW 21:26:36 10° ENE daylight
07 Jun - 22:59:39 10° WNW 23:03:58 45° N 23:08:12 10° E visible
08 Jun - 00:40:55 10° WNW 00:45:21 80° SSW 00:49:44 10° ESE visible
08 Jun - 02:22:58 10° W 02:25:58 18° SW 02:28:56 10° S visible
08 Jun - 18:06:50 10° SSW 18:10:32 25° SE 18:14:13 10° E daylight
08 Jun - 19:46:48 10° WSW 19:51:20 84° NNW 19:55:50 10° ENE daylight
08 Jun - 21:28:32 10° WNW 21:32:50 43° N 21:37:05 10° ENE daylight
08 Jun - 23:10:07 10° WNW 23:14:30 54° NNE 23:18:50 10° E visible
